This demonstration page uses our WeatherBlox Daily Observations layout. Learn more.

Left ArrowRight Arrow

Hourly Observations for April 14, 2015

Temp ( °F °C ) Dew Point ( °F °C ) Humidity (%) Winds ( mph kmh ) Pressure ( in mb ) Visibility ( mi km ) Precip ( " mm )
12:53 am 00:53 Clear 43 6.1 27 -2.8 53 53 ENE 7 11 29.72 1007 10 16 0.00 0.00
1:53 am 01:53 Clear 39 3.9 28 -2.2 65 65 ESE 5 7 29.70 1006 10 16 0.00 0.00
2:53 am 02:53 Clear 36 2.2 28 -2.2 73 73 Calm 29.68 1005 10 16 0.00 0.00
3:53 am 03:53 Clear 35 1.7 29 -1.7 78 78 E 7 11 29.66 1004 10 16 0.00 0.00
4:53 am 04:53 Clear 34 1.1 28 -2.2 79 79 ESE 3 6 29.64 1004 10 16 0.00 0.00
5:53 am 05:53 Clear 28 -2.2 25 -3.9 88 88 SSW 3 6 29.64 1004 10 16 0.00 0.00
6:53 am 06:53 Sunny 29 -1.7 24 -4.4 82 82 Calm 29.62 1003 10 16 0.00 0.00
7:53 am 07:53 Sunny 34 1.1 27 -2.8 76 76 WNW 3 6 29.59 1002 10 16 0.00 0.00
8:53 am 08:53 Sunny 46 7.8 32 0 58 58 Calm 29.57 1001 10 16 0.00 0.00
9:53 am 09:53 Sunny 48 8.9 31 -0.6 52 52 Calm 29.59 1002 10 16 0.00 0.00
10:53 am 10:53 Sunny 52 11.1 31 -0.6 45 45 NW 7 11 29.62 1003 10 16 0.00 0.00
11:53 am 11:53 Sunny 60 15.6 32 0 35 35 NW 12 19 29.59 1002 10 16 0.00 0.00
12:53 pm 12:53 Sunny 64 17.8 28 -2.2 26 26 N 5 7 29.58 1002 10 16 0.00 0.00
1:53 pm 13:53 Sunny 67 19.4 28 -2.2 23 23 NNW 5 7 29.57 1001 10 16 0.00 0.00
2:53 pm 14:53 Mostly Sunny 67 19.4 30 -1.1 25 25 N 9 15 29.56 1001 10 16 0.00 0.00
3:53 pm 15:53 Sunny 69 20.6 32 0 25 25 N 7 11 29.55 1001 10 16 0.00 0.00
4:53 pm 16:53 Mostly Cloudy 67 19.4 33 0.6 28 28 NW 12 19 29.58 1002 10 16 0.00 0.00
5:53 pm 17:53 Cloudy 62 16.7 36 2.2 38 38 W 13 20 29.65 1004 10 16 0.00 0.03
6:53 pm 18:53 Mostly Cloudy 56 13.3 36 2.2 47 47 W 22 35 29.69 1005 10 16 0.00 0.03
7:53 pm 19:53 Cloudy with Light Rain 50 10 34 1.1 54 54 W 26 43 29.74 1007 10 16 0.00 0.03
8:53 pm 20:53 Cloudy with Light Rain 45 7.2 39 3.9 80 80 WSW 17 28 29.78 1008 10 16 0.01 0.25
9:53 pm 21:53 Cloudy with Light Rain 44 6.7 38 3.3 79 79 SW 22 35 29.79 1009 10 16 0.00 0.03
10:53 pm 22:53 Cloudy with Light Rain 43 6.1 38 3.3 82 82 WSW 17 28 29.79 1009 10 16 0.00 0.03
11:53 pm 23:53 Cloudy with Light Rain 41 5 38 3.3 89 89 WNW 26 43 29.82 1010 8 13 0.04 1.02

Powered by AerisWeather